Flight Track Log - Related Links

Times and Time Zones

All times are in EDT time to prevent confusion due to time zone crossing. See the JZA7784 flight status page for this flight to view local times or setup timezone preferences in your user account.

Time Position Orientation Groundspeed Altitude Reporting Facility
EDT Latitude Longitude Course Direction KTS MPH feet Rate Location/Type
00:41 43.6667 -79.6167 360° North 10 12 500  Level Toronto Center
00:44 43.6667 -79.6167 144° Southeast 10 12 500  Level Toronto Center
00:46 43.6667 -79.6167 144° Southeast 10 12 500  Level Toronto Center
00:47 43.6667 -79.6167 144° Southeast 10 12 500 267 Level Toronto Center
00:49 43.6833 -79.6333 324° Northwest 160 184 1,300 967 Climbing Toronto Center
00:50 43.7333 -79.6833 324° Northwest 200 230 3,400 2,400 Climbing Toronto Center
00:51 43.7833 -79.6833 360° North 220 253 6,100 2,400 Climbing Toronto Center
00:52 43.7833 -79.6167 90° East 260 299 8,200 2,450 Climbing Toronto Center
00:53 43.8000 -79.5000 79° East 290 334 11,000 2,150 Climbing Toronto Center
00:54 43.8333 -79.3833 68° East 340 391 12,500 2,000 Climbing Toronto Center
00:55 43.8667 -79.2333 73° East 370 426 15,000 2,250 Climbing Toronto Center
00:56 43.9000 -79.1000 71° East 380 437 17,000 1,850 Climbing Toronto Center
00:57 43.9333 -78.9667 71° East 400 460 18,700 2,000 Climbing Toronto Center
00:58 43.9833 -78.8000 67° East 410 472 21,000 2,050 Climbing Toronto Center
00:59 44.0167 -78.6667 71° East 420 483 22,800 1,600 Climbing Toronto Center
01:00 44.0667 -78.5000 67° East 430 495 24,200 1,500 Climbing Toronto Center
01:01 44.0833 -78.3333 82° East 440 506 25,800 1,550 Climbing Toronto Center
01:02 44.1333 -78.1667 67° East 450 518 27,300 1,250 Climbing Toronto Center
01:03 44.1833 -78.0000 67° East 460 529 28,300 1,250 Climbing Toronto Center
01:04 44.2167 -77.8333 74° East 460 529 29,800 1,450 Climbing Toronto Center
01:05 44.2667 -77.6500 69° East 460 529 31,200 1,350 Climbing Toronto Center
01:06 44.3167 -77.4833 67° East 460 529 32,500 900 Climbing Toronto Center
01:07 44.3500 -77.3000 76° East 470 541 33,000 250 Climbing Toronto Center
01:08 44.3833 -77.1333 74° East 460 529 33,000  Level Toronto Center
01:09 44.4333 -77.0000 62° Northeast 460 529 33,000  Level Toronto Center
01:10 44.4833 -76.8000 71° East 450 518 33,000  Level Toronto Center
01:11 44.5167 -76.6667 71° East 440 506 33,000  Level Toronto Center
01:12 44.5500 -76.5333 71° East 440 506 33,000  Level Montreal Center
01:13 44.5833 -76.3833 73° East 440 506 33,000  Level Montreal Center
01:14 44.6167 -76.2000 76° East 440 506 33,000  Level Montreal Center
01:15 44.6667 -76.0667 62° Northeast 440 506 33,000  Level Montreal Center
01:16 44.7167 -75.9000 67° East 430 495 33,000  Level Montreal Center
01:17 44.7500 -75.7333 74° East 430 495 33,000  Level Montreal Center
01:18 44.8000 -75.5667 67° East 430 495 33,000 -900 Level Montreal Center
01:19 44.8333 -75.4333 71° East 440 506 31,200 -2,700 Descending Montreal Center
01:20 44.8833 -75.2333 71° East 450 518 27,600 -3,500 Descending Montreal Center
01:21 44.9167 -75.1000 71° East 450 518 24,200 -3,600 Descending Montreal Center
01:22 44.9667 -74.9333 67° East 440 506 20,400 -3,600 Descending Montreal Center
01:23 45.0333 -74.7833 58° Northeast 430 495 17,000 -3,350 Descending Montreal Center
01:24 45.1000 -74.6333 58° Northeast 410 472 13,700 -2,900 Descending Montreal Center
01:25 45.1500 -74.5167 59° Northeast 380 437 11,200 -1,850 Descending Montreal Center
01:26 45.1833 -74.4000 68° East 330 380 10,000 -1,350 Descending Montreal Center
01:27 45.2167 -74.2833 68° East 290 334 8,500 -1,450 Descending Montreal Center
01:28 45.2333 -74.1833 77° East 270 311 7,100 -1,300 Descending Montreal Center
01:29 45.2500 -74.0833 77° East 260 299 5,900 -1,200 Descending Montreal Center
01:30 45.2833 -74.0000 60° Northeast 240 276 4,700 -1,100 Descending Montreal Center
01:31 45.3167 -73.9167 60° Northeast 220 253 3,700 -1,100 Descending Montreal Center
01:32 45.3500 -73.8667 47° Northeast 200 230 2,500 -1,050 Descending Montreal Center
01:33 45.4000 -73.8167 35° Northeast 180 207 1,600 -850 Descending Montreal Center
01:34 45.4167 -73.8000 35° Northeast 150 173 800 -750 Descending Montreal Center
01:35 45.4500 -73.7500 46° Northeast 140 161 100 -700 Descending Montreal Center

Login

Don't have an account? Register now (free) for customized features, flight alerts, and more!